Weather reports worldwide

Advertisment
St. Mary's, United Kingdom (3803): temperature & dewpoint: 11.10.2017 15:00:00 - 17.10.2017 15:00:00 (BST)St. Mary's, United Kingdom (3803): temperature -20cm: 11.10.2017 15:00:00 - 17.10.2017 15:00:00 (BST)St. Mary's, United Kingdom (3803): wind speed & gusts: 11.10.2017 15:00:00 - 17.10.2017 15:00:00 (BST)St. Mary's, United Kingdom (3803): wind direction: 11.10.2017 15:00:00 - 17.10.2017 15:00:00 (BST)St. Mary's, United Kingdom (3803): reduced air pressure: 11.10.2017 15:00:00 - 17.10.2017 15:00:00 (BST)St. Mary's, United Kingdom (3803): visibility: 11.10.2017 15:00:00 - 17.10.2017 15:00:00 (BST)St. Mary's, United Kingdom (3803): precipitation: 11.10.2017 15:00:00 - 17.10.2017 15:00:00 (BST)
Date & Time tt [°C] td [°C] tt -20cm [°C] ff [km/h] ff [kn] fx [km/h] fx [kn] dd ppp [hPa] vv [km] rr [mm]
17.10.2017 15:00:00 13,8 10,2 - 18 10 - - SSE 1017,2 10 0,0
17.10.2017 14:00:00 14,2 11,8 - 15 8 - - SE 1018,0 10 0,0
17.10.2017 13:00:00 14,2 10,9 - 9 5 - - ESE 1018,8 10 0,0
17.10.2017 12:00:00 14,5 11,0 - 9 5 - - SE 1019,4 10 0,0
17.10.2017 11:00:00 14,4 11,3 - 11 6 - - SSE 1019,6 10 0,0
17.10.2017 10:00:00 14,5 11,1 14,2 5 3 - - SSE 1019,4 10 0,0
17.10.2017 09:00:00 13,1 10,8 - 9 5 - - S 1019,4 10 0,0
17.10.2017 08:00:00 13,0 10,5 - 13 7 - - SSW 1019,2 10 0,0
17.10.2017 07:00:00 13,2 10,1 - 15 8 - - SW 1019,3 13 0,0
17.10.2017 06:00:00 12,8 9,7 - 18 10 - - SW 1018,8 14 0,0
17.10.2017 05:00:00 13,0 9,9 - 15 8 - - SW 1018,7 9 0,0
17.10.2017 04:00:00 12,9 8,8 - 22 12 - - WSW 1019,2 12 0,0
17.10.2017 03:00:00 13,1 8,8 - 26 14 - - WSW 1019,8 14 0,0
17.10.2017 02:00:00 13,3 9,1 - 28 15 46 25 WSW 1019,6 13 0,0
17.10.2017 01:00:00 13,5 9,4 - 31 17 54 29 SW 1019,5 12 0,0
17.10.2017 00:00:00 13,3 9,0 - 34 18 52 28 SW 1019,5 11 0,0
16.10.2017 23:00:00 13,4 8,6 - 39 21 57 31 WSW 1018,9 13 0,0
16.10.2017 22:00:00 13,6 8,8 - 44 24 63 34 SW 1018,3 13 0,0
16.10.2017 21:00:00 13,8 9,1 - 46 25 70 38 WSW 1017,2 12 0,0
16.10.2017 20:00:00 14,0 9,5 - 44 24 76 41 WSW 1016,3 10 0,0
16.10.2017 19:00:00 13,9 9,0 - 59 32 85 46 SW 1015,0 9 0,0
16.10.2017 18:00:00 14,3 8,7 - 63 34 89 48 WSW 1013,8 7 0,0
16.10.2017 17:00:00 14,5 8,9 - 67 36 98 53 SW 1012,9 8 0,0
16.10.2017 16:00:00 14,5 9,5 - 67 36 106 57 SW 1011,6 8 0,0
16.10.2017 15:00:00 15,2 10,0 - 70 38 109 59 SW 1010,1 8 0,0
16.10.2017 14:00:00 15,5 9,4 - 80 43 117 63 SW 1009,1 6 0,0
16.10.2017 13:00:00 15,6 9,5 - 78 42 107 58 SSW 1008,2 7 0,0
16.10.2017 12:00:00 15,5 10,5 - 85 46 113 61 SSW 1007,4 7 0,0
16.10.2017 11:00:00 15,5 10,2 - 81 44 113 61 SSW 1006,3 7 0,0
16.10.2017 10:00:00 15,3 10,7 15,2 81 44 107 58 SSW 1005,7 7 0,0
16.10.2017 09:00:00 15,5 11,1 - 81 44 102 55 SSW 1004,6 6 0,0
16.10.2017 08:00:00 16,6 12,5 - 83 45 107 58 SSW 1003,7 6 0,0
16.10.2017 07:00:00 17,4 15,1 - 63 34 80 43 S 1003,2 6 0,0
16.10.2017 06:00:00 17,4 14,2 - 65 35 83 45 SSE 1003,6 7 0,0
16.10.2017 05:00:00 17,8 13,3 - 59 32 76 41 SSE 1003,7 9 0,0
16.10.2017 04:00:00 18,0 13,6 - 54 29 72 39 SSE 1004,6 8 0,0
16.10.2017 03:00:00 17,4 14,0 - 57 31 68 37 SSE 1006,4 8 0,0
16.10.2017 02:00:00 15,8 14,3 - 39 21 52 28 ESE 1008,3 8 0,0
16.10.2017 01:00:00 15,2 14,9 - 29 16 - - SE 1010,1 6 0,0
16.10.2017 00:00:00 15,2 15,2 - 26 14 - - SE 1011,6 2,6 0,0
15.10.2017 23:00:00 15,1 15,1 - 18 10 - - SSE 1012,0 0,1 0,0
15.10.2017 22:00:00 15,2 15,2 - 28 15 - - S 1012,5 0,1 0,0
15.10.2017 21:00:00 14,5 14,5 - 18 10 - - S 1012,9 0,1 0,0
15.10.2017 20:00:00 15,0 15,0 - 22 12 - - S 1012,9 0,1 0,0
15.10.2017 19:00:00 14,9 14,8 - 18 10 - - S 1012,7 0,4 0,0
15.10.2017 18:00:00 15,0 14,8 - 18 10 - - S 1012,7 0,5 0,0
15.10.2017 17:00:00 15,2 14,8 - 21 11 - - SSE 1012,9 2,4 0,0
15.10.2017 16:00:00 15,3 14,8 - 26 14 - - SSE 1013,2 3,5 0,0
15.10.2017 15:00:00 15,2 14,9 - 21 11 - - S 1013,8 2,0 0,0
15.10.2017 14:00:00 15,7 15,0 - 26 14 - - S 1014,2 5 0,0
15.10.2017 13:00:00 16,5 15,5 - 26 14 - - S 1014,6 8 0,0
15.10.2017 12:00:00 16,1 14,5 - 26 14 - - S 1014,9 9 0,0
15.10.2017 11:00:00 16,0 14,3 - 28 15 - - S 1014,9 10 0,0
15.10.2017 10:00:00 15,3 13,7 15,0 26 14 - - S 1015,4 16 0,0
15.10.2017 09:00:00 15,0 13,5 - 28 15 - - S 1015,4 13 0,0
15.10.2017 08:00:00 14,9 13,2 - 28 15 - - S 1015,4 15 0,0
15.10.2017 07:00:00 14,8 13,0 - 28 15 - - S 1015,8 13 0,0
15.10.2017 06:00:00 14,8 13,1 - 26 14 - - SSW 1015,9 12 0,0
15.10.2017 05:00:00 14,8 13,2 - 28 15 - - S 1016,0 11 0,0
15.10.2017 04:00:00 14,8 12,8 - 26 14 - - S 1016,2 17 0,0
15.10.2017 03:00:00 15,0 12,5 - 29 16 - - SSW 1016,7 28 0,0
15.10.2017 02:00:00 14,9 12,6 - 24 13 - - SSW 1017,3 21 0,0
15.10.2017 01:00:00 14,4 13,7 - 24 13 - - S 1017,9 7 0,0
15.10.2017 00:00:00 14,4 13,4 - 24 13 - - S 1018,1 10 0,0
14.10.2017 23:00:00 14,5 13,5 - 26 14 - - S 1018,3 10 0,0
14.10.2017 22:00:00 14,3 13,7 - 22 12 - - SSE 1018,5 11 0,0
14.10.2017 21:00:00 14,2 13,6 - 18 10 - - SSE 1019,3 14 0,0
14.10.2017 20:00:00 14,3 13,6 - 16 9 - - SSE 1020,0 13 0,0
14.10.2017 19:00:00 14,3 13,6 - 16 9 - - S 1020,5 12 0,0
14.10.2017 18:00:00 14,4 13,5 - 24 13 - - S 1020,5 10 0,0
14.10.2017 17:00:00 15,2 14,3 - 24 13 - - SSE 1020,8 10 0,0
14.10.2017 16:00:00 15,1 14,5 - 28 15 - - SSE 1021,5 10 0,0
14.10.2017 15:00:00 14,9 14,0 - 21 11 - - SSE 1022,5 10 0,0
14.10.2017 14:00:00 14,7 14,0 - 28 15 - - S 1023,1 10 0,0
14.10.2017 13:00:00 15,0 14,3 - 22 12 - - S 1023,6 9 0,0
14.10.2017 12:00:00 15,3 14,2 - 22 12 - - S 1024,0 10 0,0
14.10.2017 11:00:00 15,2 14,2 - 18 10 - - S 1023,7 10 0,0
14.10.2017 10:00:00 15,4 14,1 15,2 21 11 - - SSW 1023,8 10 0,0
14.10.2017 09:00:00 15,1 14,1 - 18 10 - - S 1023,3 10 0,0
14.10.2017 08:00:00 15,1 14,4 - 26 14 - - S 1022,9 10 0,0
14.10.2017 07:00:00 15,3 14,3 - 26 14 - - S 1022,7 14 0,0
14.10.2017 06:00:00 15,4 14,5 - 28 15 - - SSW 1022,7 16 0,0
14.10.2017 05:00:00 15,6 14,7 - 24 13 - - SSW 1022,8 14 0,0
14.10.2017 04:00:00 15,3 14,9 - 21 11 - - SSW 1022,9 9 0,0
14.10.2017 03:00:00 15,6 15,1 - 28 15 - - SSW 1022,9 10 0,0
14.10.2017 02:00:00 15,7 15,2 - 34 18 - - SSW 1023,0 11 0,0
14.10.2017 01:00:00 15,5 15,2 - 28 15 - - SSW 1022,9 7 0,0
14.10.2017 00:00:00 15,4 15,1 - 28 15 - - SSW 1022,7 7 0,0
13.10.2017 23:00:00 15,4 15,1 - 29 16 - - SSW 1022,5 8 0,0
13.10.2017 22:00:00 15,4 15,0 - 26 14 - - SSW 1022,5 7 0,0
13.10.2017 21:00:00 15,5 15,2 - 28 15 - - SSW 1022,5 8 0,0
13.10.2017 20:00:00 15,5 15,1 - 26 14 - - SSW 1022,5 7 0,0
13.10.2017 19:00:00 15,6 15,2 - 28 15 - - SSW 1022,0 10 0,0
13.10.2017 18:00:00 15,8 15,2 - 28 15 - - SSW 1021,7 8 0,0
13.10.2017 17:00:00 15,7 15,1 - 26 14 - - SSW 1021,7 9 0,0
13.10.2017 16:00:00 15,7 15,1 - 28 15 - - SSW 1021,6 9 0,0
13.10.2017 15:00:00 15,7 15,1 - 28 15 - - SSW 1021,5 9 0,0
13.10.2017 14:00:00 15,9 15,1 - 28 15 - - SSW 1021,5 9 0,0
13.10.2017 13:00:00 15,9 15,1 - 31 17 - - SSW 1021,5 10 0,0
13.10.2017 12:00:00 15,9 15,3 - 35 19 46 25 SSW 1021,5 10 0,0
13.10.2017 11:00:00 16,0 15,4 - 35 19 - - SSW 1021,3 10 0,0
13.10.2017 10:00:00 15,7 15,4 15,0 31 17 46 25 SSW 1021,0 10 0,0
13.10.2017 09:00:00 15,4 15,2 - 31 17 - - SSW 1020,6 9 0,0
13.10.2017 08:00:00 15,4 15,3 - 35 19 46 25 SSW 1020,2 8 0,0
13.10.2017 07:00:00 15,4 15,3 - 37 20 46 25 SSW 1020,0 8 0,0
13.10.2017 06:00:00 15,4 15,4 - 39 21 50 27 SSW 1019,7 7 0,0
13.10.2017 05:00:00 15,4 15,4 - 31 17 - - SSW 1019,6 4,5 0,0
13.10.2017 04:00:00 15,3 15,3 - 31 17 - - SSW 1019,6 5 0,4
13.10.2017 03:00:00 15,5 15,4 - 31 17 - - SSW 1019,9 1,6 0,2
13.10.2017 02:00:00 15,4 15,4 - 34 18 48 26 SSW 1019,9 0,2 0,0
13.10.2017 01:00:00 15,5 15,5 - 39 21 48 26 SSW 1020,0 0,4 0,2
13.10.2017 00:00:00 15,4 15,4 - 35 19 - - SSW 1020,1 0,3 0,0
12.10.2017 23:00:00 15,4 15,4 - 34 18 - - SSW 1020,2 0,4 0,0
12.10.2017 22:00:00 15,4 15,3 - 37 20 46 25 SSW 1020,1 0,3 0,0
12.10.2017 21:00:00 15,2 15,1 - 34 18 - - SSW 1020,1 1,6 0,0
12.10.2017 20:00:00 15,3 15,0 - 29 16 - - SSW 1020,3 2,7 0,0
12.10.2017 19:00:00 15,5 14,7 - 34 18 - - SSW 1020,1 13 0,0
12.10.2017 18:00:00 15,2 14,2 - 31 17 - - S 1020,1 10 0,0
12.10.2017 17:00:00 15,5 14,2 - 31 17 - - S 1020,0 10 0,0
12.10.2017 16:00:00 15,2 13,9 - 29 16 - - S 1020,2 10 0,0
12.10.2017 15:00:00 15,7 14,3 - 34 18 - - S 1020,5 10 0,0
12.10.2017 14:00:00 15,3 13,7 - 28 15 - - S 1021,0 10 0,0
12.10.2017 13:00:00 15,8 13,5 - 28 15 - - S 1021,3 10 0,0
12.10.2017 12:00:00 15,4 12,9 - 22 12 - - S 1021,4 10 0,0
12.10.2017 11:00:00 15,2 12,3 - 18 10 - - S 1021,3 10 0,0
12.10.2017 10:00:00 14,9 11,5 14,2 15 8 - - SSW 1021,0 10 0,0
12.10.2017 09:00:00 13,8 10,0 - 15 8 - - SW 1020,6 10 0,0
12.10.2017 08:00:00 13,2 9,5 - 15 8 - - SW 1020,2 10 0,0
12.10.2017 07:00:00 12,7 9,1 - 16 9 - - WSW 1019,8 18 0,0
12.10.2017 06:00:00 13,0 9,8 - 16 9 - - SW 1019,3 22 0,0
12.10.2017 05:00:00 12,7 10,3 - 16 9 - - WSW 1018,9 19 0,0
12.10.2017 04:00:00 13,3 10,4 - 13 7 - - W 1018,7 30 0,0
12.10.2017 03:00:00 12,9 10,5 - 16 9 - - W 1018,7 16 0,0
12.10.2017 02:00:00 12,9 9,8 - 18 10 - - W 1018,5 21 0,0
12.10.2017 01:00:00 12,9 9,9 - 18 10 - - W 1018,2 18 0,0
12.10.2017 00:00:00 13,0 10,2 - 18 10 - - W 1017,8 16 0,0
11.10.2017 23:00:00 13,0 10,3 - 18 10 - - W 1017,5 13 0,0
11.10.2017 22:00:00 13,2 10,3 - 24 13 - - W 1016,7 13 0,0
11.10.2017 21:00:00 13,7 11,6 - 22 12 - - W 1016,1 10 0,0
11.10.2017 20:00:00 13,8 12,1 - 28 15 - - W 1014,9 11 0,0
11.10.2017 19:00:00 13,9 12,6 - 24 13 - - W 1013,7 10 0,0
11.10.2017 18:00:00 15,0 13,4 - 22 12 - - W 1012,5 10 0,0
11.10.2017 17:00:00 15,0 13,6 - 28 15 - - W 1011,8 10 0,0
11.10.2017 16:00:00 14,1 13,4 - 37 20 59 32 W 1011,1 10 0,2
11.10.2017 15:00:00 15,8 14,6 - 44 24 59 32 SW 1010,2 2,5 0,0

tt = temperature
td = dewpoint
tt -20cm = temperature -20cm
ff = wind speed
fx = gusts
dd = wind direction
ppp = reduced air pressure
vv = visibility
rr = precipitation

Next stations